This is the latest recevied weather packets stored in our database for station/object W1ERB-13. If no packets are shown the sender has not sent any weather packets the latest 10 day(s).
| Time | Temp. | Humidity | Pressure | Rain* | Wind** | Luminosity | Snow |
|---|---|---|---|---|---|---|---|
| 1777931040 | 18.89° C | 44% | 1008.5 hPa | 0 mm | - | 82 W/m² | - |
| 1777930737 | 18.89° C | 44% | 1008.4 hPa | 0 mm | - | 80 W/m² | - |
| 1777930433 | 18.89° C | 44% | 1008.5 hPa | 0 mm | - | 74 W/m² | - |
| 1777930130 | 18.89° C | 43% | 1008.4 hPa | 0 mm | - | 81 W/m² | - |
| 1777929826 | 19.44° C | 44% | 1008.5 hPa | 0 mm | - | 76 W/m² | - |
| 1777929524 | 19.44° C | 45% | 1008 hPa | 0 mm | - | 74 W/m² | - |
| 1777929220 | 19.44° C | 45% | 1008.2 hPa | 0 mm | - | 73 W/m² | - |
| 1777928918 | 19.44° C | 43% | 1008.2 hPa | 0 mm | - | 87 W/m² | - |
| 1777928615 | 19.44° C | 42% | 1008.2 hPa | 0 mm | - | 173 W/m² | - |
| 1777928312 | 19.44° C | 41% | 1008.2 hPa | 0 mm | - | 118 W/m² | - |
| 1777928010 | 20.56° C | 41% | 1008.1 hPa | 0 mm | - | 201 W/m² | - |
| 1777927708 | 20.56° C | 41% | 1008.2 hPa | 0 mm | - | 313 W/m² | - |
| 1777927406 | 20.56° C | 41% | 1008.3 hPa | 0 mm | - | 389 W/m² | - |
| 1777927105 | 20.56° C | 39% | 1008.4 hPa | 0 mm | - | 406 W/m² | - |
| 1777926801 | 20.56° C | 39% | 1007.9 hPa | 0 mm | - | 441 W/m² | - |
| 1777926497 | 20.56° C | 39% | 1008.3 hPa | 0 mm | - | 484 W/m² | - |
| 1777926195 | 20.56° C | 39% | 1008.3 hPa | 0 mm | - | 111 W/m² | - |
| 1777925891 | 20.56° C | 38% | 1008.2 hPa | 0 mm | - | 484 W/m² | - |
| 1777925588 | 20.56° C | 39% | 1008.3 hPa | 0 mm | - | 505 W/m² | - |
| 1777925286 | 20.56° C | 38% | 1008.5 hPa | 0 mm | - | 494 W/m² | - |
| 1777924982 | 21.11° C | 39% | 1008.3 hPa | 0 mm | - | 527 W/m² | - |
| 1777924678 | 21.11° C | 39% | 1008.3 hPa | 0 mm | - | 525 W/m² | - |
| 1777924374 | 21.11° C | 38% | 1008.5 hPa | 0 mm | - | 540 W/m² | - |
| 1777924071 | 20.56° C | 38% | 1008.3 hPa | 0 mm | - | 537 W/m² | - |
| 1777923767 | 20.56° C | 38% | 1008.4 hPa | 0 mm | - | 525 W/m² | - |
* Rain latest hour (hover to see other rain measurements)
** Current wind speed in m/s (hover to see current wind gust speed)